Location: Dennis Manor
(64.8292°N, 147.5397°W)
Time: 07:50:31
(UTC+00:00)

Envisat - Pass Details

Date: 04 November 2020
Orbit: 764 x 766 km, 98.1° (Epoch: 05 December)

Event Time Altitude Azimuth Distance (km) Brightness Sun altitude
Rises 15:17:24 0° 18° (NNE) 3,250 6.4 -15.9°
Reaches altitude 10° 15:19:54 10° 27° (NNE) 2,319 5.8 -15.6°
Maximum altitude 15:24:36 36° 94° (E) 1,215 4.7 -15.1°
Drops below altitude 10° 15:29:16 10° 160° (SSE) 2,305 5.8 -14.6°
Sets 15:31:45 0° 169° (S) 3,227 6.5 -14.3°
